#timestamp,LO_Frequency,Hit,StdDev 
1648954815.8,286047001.0,N
1648954835.7,286047005.7,N
1648954855.5,286047003.0,N
1648954875.3,286047002.5,N
1648954895.2,286047004.3,N
1648954915.0,286047000.1,N
1648954915.9,286047000.1,N
1648954935.7,286047000.9,N
1648954955.6,286046999.4,N
1648954975.4,286046999.1,N
1648954995.3,286046997.8,N
1648955015.1,286046995.8,N
1648955016.0,286046995.8,N
1648955035.8,286047000.5,N
1648955055.7,286046998.6,N
1648955075.5,286046995.0,N
1648955095.3,286046996.1,N
1648955115.2,286046995.6,N
1648955135.0,286046993.5,N
1648955135.9,286046993.5,N
1648955155.8,286046994.0,N
1648955175.6,286046994.0,N
1648955195.4,286046994.5,N
1648955215.3,286046992.2,N
1648955235.1,286046991.9,N
1648955255.8,286046992.3,N
1648955275.7,286046994.2,N
1648955295.5,286046994.2,N
1648955315.4,286046993.9,N
1648955335.2,286047003.5,N
1648955355.0,286047002.3,N
1648955355.9,286047002.3,N
1648955375.8,286047003.8,N
1648955395.6,286047004.4,N
1648955415.4,286046999.4,N
1648955435.3,286046995.7,N
1648955455.1,286046995.0,N
1648955475.9,286046995.4,N
1648955495.7,286046995.8,N
1648955515.5,286046996.1,N
1648955535.4,286046999.5,N
1648955555.2,286046997.1,N
1648955575.0,286046996.1,N
1648955576.0,286046996.1,N
1648955595.8,286046996.1,N
1648955615.6,286047002.4,N
1648955635.5,286047001.5,N
1648955655.3,286047001.9,N
1648955675.1,286047000.2,N
1648955695.9,286046998.5,N
1648955715.7,286047001.0,N
1648955735.6,286046996.6,N
1648955755.4,286046997.8,N
1648955775.2,286046996.2,N
1648955795.1,286046996.9,N
1648955796.0,286046996.9,N
1648955815.8,286047002.5,N
1648955835.6,286047003.8,N
1648955855.5,286047005.8,N
1648955875.3,286047012.5,Y
1648955895.2,286047018.8,P
1648955915.9,286047011.0,N
1648955935.7,286047010.3,N
1648955955.6,286047007.0,N
1648955975.4,286047008.3,N
1648955995.2,286047009.5,N
1648956015.1,286047007.3,N
1648956016.0,286047007.3,N
1648956035.8,286047008.1,N
1648956055.7,286047012.8,N
1648956075.5,286047015.5,Y
1648956095.3,286047003.1,P
1648956115.2,286047004.9,N
1648956135.0,286047005.2,N
1648956135.9,286047005.2,N
1648956155.7,286047000.5,N
1648956175.6,286047000.0,N
1648956195.4,286047003.8,N
1648956215.3,286047002.8,N
1648956235.1,286047005.9,N
1648956236.0,286047005.9,N
1648956255.8,286047007.6,Y
1648956275.7,286047000.4,P
1648956295.5,286046998.6,N
1648956315.3,286047001.8,N
1648956335.2,286047006.9,Y
1648956355.0,286047003.0,P
1648956355.9,286047003.0,P
1648956375.8,286046998.2,N
1648956395.6,286046997.8,N
1648956415.4,286046998.1,N
1648956435.3,286046997.5,N
1648956455.1,286046997.0,N
1648956475.8,286047000.1,N
1648956495.7,286047001.9,N
1648956515.5,286046996.9,N
1648956535.4,286047002.6,N
1648956555.2,286047001.0,N
1648956575.0,286047003.9,N
1648956575.9,286047003.9,N
1648956595.8,286047002.1,N
1648956615.6,286047003.9,N
1648956635.4,286047001.3,N
1648956655.3,286047003.9,N
1648956675.1,286047002.3,N
1648956695.9,286047000.8,N
1648956715.7,286046996.5,N
1648956735.5,286047003.8,N
1648956755.4,286047003.2,N
1648956775.2,286046996.5,N
1648956795.0,286046996.4,N
1648956795.9,286046996.4,N
1648956815.8,286047001.3,N
1648956835.6,286047000.7,N
1648956855.5,286046996.9,N
1648956875.3,286046996.2,N
1648956895.1,286046992.0,N
1648956915.9,286046998.9,N
1648956935.7,286046996.2,N
1648956955.5,286046993.4,N
1648956975.4,286046992.6,N
1648956995.2,286046991.7,N
1648957015.1,286046994.0,N
1648957016.0,286046994.0,N
1648957035.8,286046999.4,N
1648957055.6,286047001.3,N
1648957075.5,286047002.6,N
1648957095.3,286046999.5,N
1648957115.2,286047005.9,N
1648957135.9,286047004.5,N
1648957155.7,286047006.1,N
1648957175.6,286047005.6,N
1648957195.4,286047004.0,N
1648957215.2,286047004.8,N
1648957235.1,286047003.5,N
1648957236.0,286047003.5,N
1648957255.8,286047006.4,N
1648957275.7,286047007.0,N
1648957295.5,286047007.6,N
1648957315.3,286047008.5,N
1648957335.2,286047015.7,Y
1648957355.0,286047016.6,P
1648957355.9,286047016.6,N
1648957375.7,286047011.6,N
1648957395.6,286047012.0,N
1648957415.4,286047008.4,N
1648957435.3,286047009.5,N
1648957455.1,286047009.8,N
1648957456.0,286047009.8,N
1648957475.8,286047006.4,N
1648957495.7,286047007.4,N
1648957515.5,286047005.4,N
1648957535.3,286047005.8,N
1648957555.2,286047007.8,N
1648957575.0,286047012.6,Y
1648957575.9,286047012.6,P
1648957595.8,286046999.8,N
1648957615.6,286046998.6,N
1648957635.4,286046994.0,N
1648957655.3,286046990.1,N
1648957675.1,286046992.5,N
1648957695.8,286046989.2,N
1648957715.7,286046988.7,N
1648957735.5,286046991.2,N
1648957755.4,286046991.1,N
1648957775.2,286046991.8,N
1648957795.0,286046998.7,N
1648957795.9,286046998.7,N
1648957815.8,286046997.2,N
1648957835.6,286046998.9,N
1648957855.5,286046997.1,N
1648957875.3,286046993.9,N
1648957895.1,286046993.6,N
1648957915.9,286046992.7,N
1648957935.7,286046995.7,N
1648957955.5,286046996.1,N
1648957975.4,286047001.0,N
1648957995.2,286046996.5,N
1648958015.1,286046997.0,N
1648958016.0,286046997.0,N
1648958035.8,286047001.1,N
1648958055.6,286046996.6,N
1648958075.5,286046999.9,N
1648958095.3,286047003.6,N
1648958115.2,286046996.9,N
1648958135.9,286046997.2,N
1648958155.7,286046997.6,N
1648958175.6,286046999.3,N
1648958195.4,286046995.8,N
1648958215.2,286046994.6,N
1648958235.1,286046999.2,N
1648958236.0,286046999.2,N
1648958255.8,286046991.7,N
1648958275.7,286046989.7,Y
1648958295.5,286046990.7,P
1648958315.3,286046995.7,N
1648958335.2,286046997.6,N
1648958355.0,286046994.2,N
1648958355.9,286046994.2,N
1648958375.8,286046995.7,N
1648958395.6,286047011.9,Y
